Back to catalog

STARLINK-4000

AliveCommunicationsVLEO
NORAD 52605·PAYLOAD·🇺🇸 United States

Launched May 14, 2022 from Cape Canaveral Space Force Station

Loading…

Next Passes (next 24 hours)

TLE

FreshSource: CelesTrak SupGP

Epoch: Sep 14, 2026, 21:57 UTC

1 52605C 22052H   26257.91506944 -.00019432  00000+0 -57397-3 0  2570
2 52605  53.1581 141.5007 0001323  86.6739  98.1841 15.34408082    16

Track STARLINK-4000 in real time with AllMySat

Download on the App Store